Regional Weather Roundup
Issued by NWS

Home | Current Version | Previous Version | Text Only | Print | Product List | Glossary Off
Versions: 1 2 3 4 5 6 7 8 9 10 11 12 13 14 15 16 17 18 19 20 21 22 23 24 25 26 27 28 29 30 31 32 33 34 35 36 37 38 39 40 41 42 43 44 45 46 47 48 49 50

000
ASUS43 KMPX 242101
RWRMN
WEATHER ROUNDUP FOR MINNESOTA
NATIONAL WEATHER SERVICE TWIN CITIES/CHANHASSEN MN
400 PM CDT MON JUL 24 2017


NOTE: "FAIR" INDICATES FEW OR NO CLOUDS BELOW 12,000 FEET WITH NO
SIGNIFICANT WEATHER AND/OR OBSTRUCTIONS TO VISIBILITY. N/A MEANS
CURRENT SKY AND/OR WEATHER CONDITIONS ARE NOT AVAILABLE.

MNZ060>063-068>070-242200-
   Twin Cities Metro

CITY           SKY/WX    TMP DP  RH WIND       PRES   REMARKS
TWIN CITIES    PTSUNNY   77  59  53 SE10      30.03S
ST PAUL        FAIR      76  61  59 SE8       30.03F
CRYSTAL        FAIR      77  57  50 SE10      30.01S
BLAINE         PTSUNNY   79  61  53 SE8       30.03S
LAKEVILLE      PTSUNNY   75  61  60 S7        30.04S
EDEN PRAIRIE   PTSUNNY   78  60  53 SE12G17   30.02S
SOUTH ST PAUL  PTSUNNY   75  58  54 SE3       30.03S
LAKE ELMO      FAIR      75  61  60 SE8       30.05R
$$
MNZ001>005-007-008-013>017-022>024-027-028-242200-
   Northwest Minnesota

CITY           SKY/WX    TMP DP  RH WIND       PRES   REMARKS
BEMIDJI        FAIR      77  60  54 SE14      29.99S
HALLOCK        FAIR      81  64  57 S17G26    29.87F
ROSEAU         FAIR      81  64  57 S16       29.92S
WARROAD        FAIR      81  64  57 S9        29.93S
CROOKSTON      FAIR      77  63  61 S17       29.92S
FOSSTON        FAIR      75  61  60 S12       29.97R
DETROIT LAKES  FAIR      75  61  60 SE14G21   29.98F
MOORHEAD       FAIR      77  63  61 SE12      29.93F
PARK RAPIDS    FAIR      78  58  49 S14       29.99F
MAHNOMEN       MOCLDY    76  61  59 S12G17    29.96S
$$
MNZ006-009>011-018-025>026-242200-
   North Central Minnesota

CITY           SKY/WX    TMP DP  RH WIND       PRES   REMARKS
BAUDETTE       FAIR      80  57  45 S12       29.94F
FLAG ISLAND    FAIR      75  63  64 S14       29.92F
INTL FALLS     FAIR      78  54  43 SE8       29.98F
WASKISH        PTSUNNY   79  57  47 SE9       29.97S
BIG FORK       FAIR      79  55  44 SE7       30.00F
LONGVILLE      FAIR      75  61  60 SE12      30.02R
GRAND RAPIDS   FAIR      75  59  57 SE10      30.03F
CRANE LAKE     FAIR      75  52  43 S6        30.03F
ORR            FAIR      77  50  38 SE8       29.99F
COOK           FAIR      75  52  43 S13       30.03F
WALKER         FAIR      76  58  54 SE7       30.00S
$$
MNZ012-019>021-037-242200-
   Northeast Minnesota

CITY           SKY/WX    TMP DP  RH WIND       PRES   REMARKS
DULUTH         FAIR      72  55  55 S9        30.05F
ELY            FAIR      75  46  35 SW10      30.04S
HIBBING        FAIR      75  52  44 VRB7      30.03F
EVELETH        FAIR      78  38  23 SE10      30.05F
DULUTH HARBOR  FAIR      64  61  88 E8        30.05F
TWO HARBORS    FAIR      75  61  60 SE8       30.04F
SILVER BAY     FAIR      73  54  49 SE5       30.05F
G MARAIS ARPRT FAIR      70  48  46 S6        30.10S
$$
MNZ029>031-032-039>041-046>048-054>057-064-242200-
   West Central Minnesota

CITY           SKY/WX    TMP DP  RH WIND       PRES   REMARKS
FERGUS FALLS   FAIR      75  63  64 S14       29.95F
WHEATON        FAIR      75  63  64 SE15      29.95F
MORRIS         FAIR      81  63  54 SE12      29.97F
ALEXANDRIA     FAIR      75  60  59 SE10      30.02R
ELBOW LAKE     FAIR      75  64  68 SE10      29.99F
WADENA         FAIR      75  61  60 SE12      30.00S
GLENWOOD       FAIR      79  59  50 SE13      30.02R
APPLETON       FAIR      81  61  50 SE9       29.97F
BENSON         FAIR      79  61  53 S8G17     30.00F
ORTONVILLE     FAIR      79  63  57 SE12G17   29.94F
MADISON        FAIR      81  64  57 SE13      29.96F
WILLMAR        FAIR      77  63  61 S9        30.02R
$$
MNZ033>034-036-042>043-049>051-058-059-242200-
   Central Minnesota

CITY           SKY/WX    TMP DP  RH WIND       PRES   REMARKS
ST CLOUD       FAIR      76  61  59 SE7       30.02S
SAUK CENTRE    FAIR      75  61  61 SE10      30.01F
PAYNESVILLE    FAIR      77  60  55 S9        30.00F
AITKIN         FAIR      73  61  64 S6        30.02S
PINE RIVER     FAIR      75  61  60 S12       30.05S
BRAINERD       PTSUNNY   73  61  65 E6        30.02S
STAPLES        FAIR      73  57  56 S9        30.01F
LONG PRAIRIE   PTSUNNY   72  61  68 E6        30.02F
LITTLE FALLS   PTSUNNY   73  59  60 SE9       30.02S
LITCHFIELD     FAIR      79  63  57 SE6       30.02F
BUFFALO        FAIR      76  58  53 SE5       30.04S
MAPLE LAKE     FAIR      76  63  62 SE7       30.03F
HUTCHINSON     FAIR      75  63  64 SE7       30.03S
$$
MNZ037-044-045-052-053-242200-
   East Central Minnesota

CITY           SKY/WX    TMP DP  RH WIND       PRES   REMARKS
PRINCETON      FAIR      79  61  53 S8        30.03R
MORA           FAIR      73  57  56 SE7       30.05S
CAMBRIDGE      FAIR      79  61  53 SE9       30.01F
RUSH CITY      FAIR      75  59  57 SE7       30.04F
MOOSE LAKE     FAIR      75  55  50 CALM      30.02F
HINCKLEY       FAIR      75  61  60 E6        30.04F
CLOQUET        FAIR      75  48  38 SE7       30.04F
MCGREGOR       FAIR      73  59  60 SE8       30.04S
$$
MNZ071>073-080-081-089-090-097-098-242200-
   Southwest Minnesota

CITY           SKY/WX    TMP DP  RH WIND       PRES   REMARKS
MONTEVIDEO     FAIR      84  64  51 S10G17    29.99S
GRANITE FALLS  PTSUNNY   81  65  58 SE10G16   30.00F
CANBY          FAIR      81  64  55 E14       29.97F
MARSHALL       FAIR      79  64  60 S15       29.98
REDWOOD FALLS  FAIR      78  61  55 SE12      29.99F
OLIVIA         FAIR      77  61  57 S8        30.00S
PIPESTONE      FAIR      79  63  57 S13       29.98F
WINDOM         FAIR      79  61  53 SE9       30.01F
WORTHINGTON    FAIR      78  64  61 SE15      30.00F
JACKSON        PTSUNNY   79  61  53 SE13      30.02S
TRACY          FAIR      80  66  64 S8        30.00S
SLAYTON        FAIR      78  63  60 SE12G17   30.01S HAZE
$$
MNZ065>067-074>077-082>085-091>093-242200-
   South Central Minnesota

CITY           SKY/WX    TMP DP  RH WIND       PRES   REMARKS
MANKATO        CLOUDY    76  62  62 S8        30.03S
NEW ULM        FAIR      75  61  60 SE8       30.01S
ST JAMES       FAIR      75  63  64 SE6       30.02S
FAIRMONT       PTSUNNY   77  63  61 SE8       30.02F
GLENCOE        PTSUNNY   79  65  62 SE9       30.02S
FARIBAULT      PTSUNNY   75  61  60 E7        30.04S
OWATONNA       PTSUNNY   75  61  60 SE10      30.05R
WASECA         PTSUNNY   73  61  64 SE8       30.06R
ALBERT LEA     PTSUNNY   73  61  64 SE6       30.05S
$$
MNZ078>079-086>088-094>096-242200-
   Southeast Minnesota

CITY           SKY/WX    TMP DP  RH WIND       PRES   REMARKS
ROCHESTER      FAIR      72  61  68 SE9       30.06S
RED WING       FAIR      77  55  47 SE8       30.03S
STANTON        PTSUNNY   77  60  55 E6        30.03S
DODGE CENTER   PTSUNNY   73  61  64 S10       30.06S
WINONA         FAIR      73  61  64 E9        30.06F
AUSTIN         PTSUNNY   73  61  64 SE7       30.05F
PRESTON        FAIR      72  58  62 SE8       30.08S
$$
ABBREVIATIONS USED IN REMARKS
   TC - TEMPERATURES IN CELSIUS
  WCI - WIND CHILL INDEX
   HX - HEAT INDEX
  VSB - VISIBILITY
$$




USA.gov is the U.S. government's official web portal to all federal, state and local government web resources and services.